User: anonymous   Login
Location: ROBOsky.com Wild Flower Ridge Observatory
(43.9736°N, 79.9739°W)
Time: 22:11:33
(UTC-04:00)
Language:

Cosmos 1190 Rocket - Orbit

View from above orbital plane
View from above orbital plane
View from above satellite
View from above satellite

Ground track
Ground track

The orbit data is extracted from the following two-line orbital elements,

1 11870U 80056B   18170.41719418  .00000008  00000-0  11454-4 0  9995
2 11870  74.0534 253.2506 0015297 116.2541 244.0187 14.36895830987556
Epoch (UTC): 19 June 2018 10:00:45
Eccentricity: 0.0015297
inclination: 74.0534°
perigee height: 758 km
apogee height: 780 km
right ascension of ascending node: 253.2506°
argument of perigee: 116.2541°
revolutions per day: 14.36895830
mean anomaly at epoch: 244.0187°
orbit number at epoch: 98755

The dashed part of the orbit path shows where the satellite is in the earth's shadow,  

DLR